Weather History for KRDM - August, 2013

Change the Weather History Date:

Thursday, August 22, 2013

  Actual Average Record
Temperature  
Mean Temperature 69 °F 64 °F  
Max Temperature 85 °F 84 °F 98 °F (1961)
Min Temperature 52 °F 44 °F 31 °F (1960)
Degree Days  
Heating Degree Days 0 3  
Month to date heating degree days 11 47  
Since 1 June heating degree days 216 333  
Since 1 July heating degree days 31 116  
Cooling Degree Days 4 2  
Month to date cooling degree days 82 67  
Year to date cooling degree days 297 193  
Since 1 June cooling degree days 288 188  
Growing Degree Days 19 (Base 50)    
Moisture  
Dew Point 44 °F    
Average Humidity 56    
Maximum Humidity 90    
Minimum Humidity 22    
Precipitation  
Precipitation 0.11 in 0.01 in 0.39 in (1948)
Month to date precipitation 0.21 0.35  
Year to date precipitation 2.13 5.58  
Sea Level Pressure  
Sea Level Pressure 29.93 in    
Wind  
Wind Speed 5 mph (South)    
Max Wind Speed 29 mph    
Max Gust Speed 41 mph    
Visibility 9 miles    
Events Rain , Thunderstorm    
T = Trace of Precipitation, MM = Missing Value Source: NWS Daily Summary

Daily Weather History Graph

Daily Weather History Graph

Search for Another Location

Airport or City:

Trip Planner

Search our weather history database for the weather conditions in past years. The results will help you decide how hot, cold, wet, or windy it might be!

Date:

Astronomy

Aug. 22, 2013 Rise Set
Actual Time 6:16 AM PDT 7:57 PM PDT
Civil Twilight 5:45 AM PDT 8:28 PM PDT
Nautical Twilight 5:08 AM PDT 9:05 PM PDT
Astronomical Twilight 4:27 AM PDT 9:45 PM PDT
Moon 8:36 PM PDT (8/22) 8:17 AM PDT (8/22)
Length of Visible Light 14h 42m
Length of Day
13h 41m
Waning Gibbous, 96% of the Moon is Illuminated
Aug 22
Waning Gibbous
Aug 28
Last Quarter
Sep 5
New
Sep 12
First Quarter
Sep 19
Full

Hourly Weather History & Observations

Time (PDT) Temp. Dew Point Humidity Pressure Visibility Wind Dir Wind Speed Gust Speed Precip Events Conditions
12:56 AM 61.0 °F 33.1 °F 35% 29.95 in 10.0 mi Calm Calm - N/A   Clear
1:56 AM 54.0 °F 30.9 °F 41% 29.96 in 10.0 mi SSE 3.5 mph - N/A   Clear
2:56 AM 54.0 °F 30.9 °F 41% 29.95 in 10.0 mi East 3.5 mph - N/A   Clear
3:56 AM 54.0 °F 32.0 °F 43% 29.94 in 10.0 mi SSE 4.6 mph - N/A   Clear
4:56 AM 54.0 °F 32.0 °F 43% 29.94 in 10.0 mi South 4.6 mph - N/A   Clear
5:56 AM 57.0 °F 33.1 °F 40% 29.94 in 10.0 mi South 4.6 mph - N/A   Clear
6:56 AM 55.9 °F 33.1 °F 42% 29.96 in 10.0 mi Calm Calm - N/A   Clear
7:56 AM 63.0 °F 35.1 °F 35% 29.94 in 10.0 mi ENE 3.5 mph - N/A   Partly Cloudy
8:56 AM 66.0 °F 36.0 °F 33% 29.94 in 10.0 mi Calm Calm - N/A   Mostly Cloudy
9:56 AM 66.0 °F 36.0 °F 33% 29.95 in 10.0 mi Calm Calm - 0.00 in Rain Light Rain
10:56 AM 73.0 °F 36.0 °F 26% 29.93 in 10.0 mi ESE 4.6 mph - 0.00 in   Clear
11:56 AM 77.0 °F 35.1 °F 22% 29.91 in 10.0 mi Calm Calm - N/A   Clear
12:56 PM 81.0 °F 39.9 °F 23% 29.89 in 10.0 mi Calm Calm - N/A   Clear
1:56 PM 84.0 °F 45.0 °F 25% 29.89 in 10.0 mi SSW 16.1 mph 24.2 mph N/A   Clear
2:56 PM 78.1 °F 46.0 °F 32% 29.91 in 10.0 mi SSW 20.7 mph 31.1 mph N/A   Mostly Cloudy
3:56 PM 70.0 °F 50.0 °F 49% 29.94 in 10.0 mi SSW 20.7 mph 27.6 mph N/A   Mostly Cloudy
4:56 PM 66.0 °F 54.0 °F 65% 29.95 in 8.0 mi West 9.2 mph - 0.00 in Rain , Thunderstorm Light Rain
5:12 PM 62.6 °F 55.4 °F 77% 30.00 in 1.8 mi East 4.6 mph 17.3 mph 0.08 in Rain , Thunderstorm Heavy Thunderstorms and Rain
5:24 PM 62.6 °F 55.4 °F 77% 29.97 in 3.0 mi NW 6.9 mph - 0.11 in Rain , Thunderstorm Light Rain
5:56 PM 64.0 °F 57.0 °F 78% 29.92 in 10.0 mi SSW 5.8 mph - 0.11 in   Clear
6:56 PM 64.0 °F 57.9 °F 80% 29.93 in 10.0 mi SSE 5.8 mph - N/A   Mostly Cloudy
7:56 PM 61.0 °F 57.0 °F 87% 29.91 in 10.0 mi SSE 3.5 mph - N/A   Clear
8:56 PM 61.0 °F 55.0 °F 81% 29.92 in 10.0 mi SSW 3.5 mph - N/A   Mostly Cloudy
9:56 PM 59.0 °F 55.0 °F 87% 29.92 in 10.0 mi Calm Calm - N/A   Clear
10:56 PM 57.0 °F 53.1 °F 87% 29.91 in 10.0 mi South 4.6 mph - N/A   Clear
11:56 PM 57.0 °F 51.1 °F 81% 29.90 in 10.0 mi SSW 8.1 mph - N/A   Scattered Clouds